GW4729 Weather Reports


Display with metric or nautical units.
time (UTC)temp
F
wind
direction
speed
MPH
gust
MPH
rain 1hr
in
rain 24hr
in
rain mn
in
humidity
%
barometer
mb
20260507192410 70 197 0.0 0.0 0.00 0.00 0.00 37 1010.2
20260507191907 68 195 1.0 2.0 0.00 0.00 0.00 37 1010.2
20260507191403 69 276 1.0 3.0 0.00 0.00 0.00 35 1010.5
20260507190859 69 346 0.0 2.0 0.00 0.00 0.00 37 1010.2
20260507190358 70 146 0.0 1.0 0.00 0.00 0.00 35 1010.2
20260507185856 70 16 1.0 1.0 0.00 0.00 0.00 39 1010.6
20260507185353 69 281 0.0 2.0 0.00 0.00 0.00 36 1010.5
20260507184850 67 349 0.0 1.0 0.00 0.00 0.00 37 1010.8
20260507184348 67 69 1.0 2.0 0.00 0.00 0.00 40 1010.9
20260507183844 67 280 0.0 3.0 0.00 0.00 0.00 47 1010.9
20260507183342 67 114 2.0 3.0 0.00 0.00 0.00 38 1010.9
20260507182839 69 226 1.0 2.0 0.00 0.00 0.00 41 1010.9
20260507182335 68 354 0.0 1.0 0.00 0.00 0.00 40 1011.0
20260507181831 66 245 0.0 2.0 0.00 0.00 0.00 41 1010.9
20260507181327 67 286 4.0 6.0 0.00 0.00 0.00 39 1011.1
20260507180825 67 116 1.0 2.0 0.00 0.00 0.00 39 1011.0
20260507180321 66 140 2.0 2.0 0.00 0.00 0.00 40 1011.2
20260507175817 67 52 0.0 2.0 0.00 0.00 0.00 39 1011.3
20260507175314 66 273 2.0 4.0 0.00 0.00 0.00 41 1011.3
20260507174811 67 325 3.0 6.0 0.00 0.00 0.00 40 1011.6
20260507174309 66 358 1.0 3.0 0.00 0.00 0.00 42 1011.6
20260507173806 66 336 2.0 3.0 0.00 0.00 0.00 42 1011.8
20260507173303 64 261 1.0 4.0 0.00 0.00 0.00 44 1011.7
20260507172759 66 89 2.0 4.0 0.00 0.00 0.00 42 1011.8
20260507172256 66 301 2.0 3.0 0.00 0.00 0.00 43 1011.8
20260507171752 64 327 3.0 6.0 0.00 0.00 0.00 42 1012.2
20260507171249 64 263 1.0 2.0 0.00 0.00 0.00 43 1012.3
20260507170746 65 260 2.0 3.0 0.00 0.00 0.00 40 1012.3
20260507170243 64 331 1.0 3.0 0.00 0.00 0.00 43 1012.3
20260507165738 64 315 1.0 1.0 0.00 0.00 0.00 43 1012.3
20260507165235 64 342 4.0 7.0 0.00 0.00 0.00 41 1012.5
20260507164731 62 278 3.0 4.0 0.00 0.00 0.00 46 1012.7
20260507164228 64 314 3.0 3.0 0.00 0.00 0.00 47 1012.6
20260507163725 65 270 2.0 3.0 0.00 0.00 0.00 42 1012.6
20260507163223 64 99 2.0 3.0 0.00 0.00 0.00 45 1012.6
20260507162719 64 278 4.0 6.0 0.00 0.00 0.00 47 1012.6
20260507162215 63 347 1.0 2.0 0.00 0.00 0.00 41 1012.8
20260507161712 64 253 0.0 1.0 0.00 0.00 0.00 44 1012.9
20260507161208 63 226 0.0 3.0 0.00 0.00 0.00 44 1012.9
20260507160704 63 274 1.0 3.0 0.00 0.00 0.00 49 1013.0
20260507160201 63 115 1.0 3.0 0.00 0.00 0.00 40 1013.3
20260507155656 64 271 0.0 2.0 0.00 0.00 0.00 47 1013.2
20260507155153 62 279 5.0 6.0 0.00 0.00 0.00 42 1013.3
20260507154650 62 318 2.0 3.0 0.00 0.00 0.00 46 1013.3
20260507154148 62 189 0.0 4.0 0.00 0.00 0.00 48 1013.3
20260507153644 61 285 1.0 4.0 0.00 0.00 0.00 46 1013.3
20260507153140 61 271 4.0 6.0 0.00 0.00 0.00 45 1013.4
20260507152637 61 338 3.0 3.0 0.00 0.00 0.00 48 1013.5
20260507152132 61 259 2.0 3.0 0.00 0.00 0.00 47 1013.5
20260507151629 60 268 1.0 6.0 0.00 0.00 0.00 44 1013.6
20260507151126 60 297 5.0 7.0 0.00 0.00 0.00 48 1013.6
20260507150623 61 278 4.0 4.0 0.00 0.00 0.00 49 1013.5
20260507150120 60 281 2.0 3.0 0.00 0.00 0.00 47 1013.8
20260507145615 60 307 1.0 6.0 0.00 0.00 0.00 55 1013.6
20260507145113 60 280 2.0 3.0 0.00 0.00 0.00 47 1013.8
20260507144613 58 353 1.0 2.0 0.00 0.00 0.00 55 1014.1
20260507144112 58 292 3.0 4.0 0.00 0.00 0.00 54 1014.4
20260507143608 59 311 0.0 2.0 0.00 0.00 0.00 56 1014.4
20260507143106 60 311 1.0 4.0 0.00 0.00 0.00 52 1014.3
20260507142601 59 325 0.0 3.0 0.00 0.00 0.00 52 1014.4
20260507142058 58 345 2.0 3.0 0.00 0.00 0.00 49 1014.4
20260507141554 57 298 1.0 4.0 0.00 0.00 0.00 48 1014.5
20260507141051 58 303 0.0 2.0 0.00 0.00 0.00 53 1014.5
20260507140547 57 315 0.0 1.0 0.00 0.00 0.00 52 1014.7
20260507140045 56 277 0.0 2.0 0.00 0.00 0.00 51 1014.7
20260507135542 56 329 1.0 2.0 0.00 0.00 0.00 52 1014.9
20260507135039 56 304 1.0 2.0 0.00 0.00 0.00 51 1014.9
20260507134535 56 31 1.0 2.0 0.00 0.00 0.00 52 1014.9
20260507134031 56 334 2.0 3.0 0.00 0.00 0.00 55 1014.9
20260507133528 56 278 2.0 3.0 0.00 0.00 0.00 56 1015.0
20260507133026 55 265 1.0 2.0 0.00 0.00 0.00 52 1015.0
20260507132522 55 299 1.0 2.0 0.00 0.00 0.00 57 1014.9
20260507132018 55 322 1.0 2.0 0.00 0.00 0.00 56 1015.2
20260507131516 56 313 2.0 3.0 0.00 0.00 0.00 55 1015.1
20260507131013 55 320 1.0 1.0 0.00 0.00 0.00 61 1015.0
20260507130509 55 44 0.0 1.0 0.00 0.00 0.00 55 1015.0
20260507130008 55 283 1.0 1.0 0.00 0.00 0.00 60 1015.1
20260507125506 54 313 0.0 1.0 0.00 0.00 0.00 58 1014.9
20260507125003 54 316 1.0 2.0 0.00 0.00 0.00 60 1015.0
20260507124459 54 285 1.0 1.0 0.00 0.00 0.00 63 1015.0
20260507123957 54 306 1.0 2.0 0.00 0.00 0.00 60 1015.1
20260507123455 53 271 1.0 2.0 0.00 0.00 0.00 58 1015.0
20260507122951 53 329 0.0 1.0 0.00 0.00 0.00 59 1014.9
20260507122446 53 318 1.0 3.0 0.00 0.00 0.00 60 1014.8
20260507121943 53 314 1.0 4.0 0.00 0.00 0.00 64 1014.8
20260507121438 53 332 2.0 2.0 0.00 0.00 0.00 63 1014.9
20260507120935 53 323 1.0 2.0 0.00 0.00 0.00 62 1014.7
20260507120431 53 329 1.0 2.0 0.00 0.00 0.00 66 1014.8
20260507115928 53 332 0.0 1.0 0.00 0.00 0.00 65 1014.7
20260507115424 53 336 1.0 2.0 0.00 0.00 0.00 64 1014.6
20260507114919 53 291 0.0 1.0 0.00 0.00 0.00 67 1014.6
20260507114417 53 320 1.0 2.0 0.00 0.00 0.00 65 1014.6
20260507113914 53 334 0.0 1.0 0.00 0.00 0.00 66 1014.4
20260507113411 53 296 0.0 1.0 0.00 0.00 0.00 66 1014.4
20260507112908 53 303 0.0 0.0 0.00 0.00 0.00 68 1014.5
20260507112405 52 328 0.0 1.0 0.00 0.00 0.00 70 1014.5
20260507111904 52 328 0.0 1.0 0.00 0.00 0.00 69 1014.5
20260507111359 52 328 1.0 1.0 0.00 0.00 0.00 67 1014.8
20260507110855 52 300 0.0 1.0 0.00 0.00 0.00 68 1014.8
20260507110352 52 300 0.0 1.0 0.00 0.00 0.00 69 1014.5
20260507105849 52 331 0.0 0.0 0.00 0.00 0.00 69 1014.5
20260507105345 52 331 0.0 1.0 0.00 0.00 0.00 70 1014.4
20260507104842 52 331 0.0 0.0 0.00 0.00 0.00 71 1014.6
20260507104339 52 331 0.0 0.0 0.00 0.00 0.00 70 1014.2
20260507103835 52 330 0.0 0.0 0.00 0.00 0.00 69 1014.2
20260507103332 52 330 0.0 1.0 0.00 0.00 0.00 70 1014.1
20260507102828 52 330 0.0 0.0 0.00 0.00 0.00 70 1013.9
20260507102325 52 330 0.0 1.0 0.00 0.00 0.00 71 1013.9
20260507101822 52 330 0.0 0.0 0.00 0.00 0.00 70 1013.8
20260507101321 53 331 0.0 1.0 0.00 0.00 0.00 68 1013.8
20260507100819 53 325 0.0 1.0 0.00 0.00 0.00 69 1013.8
20260507100317 52 256 0.0 1.0 0.00 0.00 0.00 68 1013.8
20260507095815 53 254 0.0 0.0 0.00 0.00 0.00 70 1013.7
20260507095311 53 328 0.0 0.0 0.00 0.00 0.00 70 1013.8
20260507094808 53 316 0.0 2.0 0.00 0.00 0.00 69 1013.8
20260507094305 53 271 0.0 0.0 0.00 0.00 0.00 69 1013.6
20260507093802 53 283 0.0 2.0 0.00 0.00 0.00 69 1013.4
20260507093300 53 347 0.0 1.0 0.00 0.00 0.00 69 1013.2
20260507092758 53 266 1.0 3.0 0.00 0.00 0.00 69 1013.6
20260507092254 53 270 0.0 1.0 0.00 0.00 0.00 71 1013.4
20260507091750 53 315 0.0 0.0 0.00 0.00 0.00 71 1013.4
20260507091247 54 328 0.0 2.0 0.00 0.00 0.00 69 1013.6
20260507090747 54 316 1.0 3.0 0.00 0.00 0.00 69 1013.6
20260507090244 54 324 0.0 2.0 0.00 0.00 0.00 71 1013.6
20260507085741 54 332 1.0 1.0 0.00 0.00 0.00 71 1013.6
20260507085238 54 340 1.0 2.0 0.00 0.00 0.00 70 1013.7
20260507084735 54 314 1.0 2.0 0.00 0.00 0.00 70 1013.6
20260507084231 54 335 3.0 4.0 0.00 0.00 0.00 70 1013.5
20260507083729 54 296 1.0 2.0 0.00 0.00 0.00 70 1013.7
20260507083226 54 339 0.0 3.0 0.00 0.00 0.00 71 1013.6
20260507082722 54 323 1.0 2.0 0.00 0.00 0.00 70 1013.4
20260507082218 54 332 2.0 3.0 0.00 0.00 0.00 70 1013.7
20260507081715 54 333 2.0 2.0 0.00 0.00 0.00 71 1013.3
20260507081211 54 270 4.0 6.0 0.00 0.00 0.00 71 1013.3
20260507080707 54 344 0.0 4.0 0.00 0.00 0.00 72 1013.0
20260507080204 54 339 1.0 3.0 0.00 0.00 0.00 73 1013.3
20260507075659 54 332 1.0 2.0 0.00 0.00 0.00 73 1013.2
20260507075155 55 317 0.0 2.0 0.00 0.00 0.00 73 1013.2
20260507074652 55 336 1.0 4.0 0.00 0.00 0.00 72 1012.9
20260507074150 55 332 2.0 3.0 0.00 0.00 0.00 72 1012.9
20260507073647 55 338 1.0 3.0 0.00 0.00 0.00 74 1012.9
20260507073143 55 178 1.0 3.0 0.00 0.00 0.00 73 1013.0
20260507072641 55 326 0.0 2.0 0.00 0.00 0.00 75 1012.9
20260507072138 55 257 0.0 2.0 0.00 0.00 0.00 75 1012.6
20260507071635 55 319 2.0 2.0 0.00 0.00 0.00 76 1012.7
20260507071131 55 293 0.0 3.0 0.00 0.00 0.00 76 1012.9
20260507070628 55 284 1.0 1.0 0.00 0.00 0.00 76 1012.8
20260507070126 54 305 0.0 1.0 0.00 0.00 0.00 79 1013.0
20260507065622 55 282 0.0 1.0 0.00 0.00 0.00 79 1012.8
20260507065119 55 293 0.0 0.0 0.00 0.00 0.00 78 1013.1
20260507064617 55 295 0.0 1.0 0.00 0.00 0.00 77 1013.0
20260507064115 55 281 2.0 2.0 0.00 0.00 0.00 76 1013.1
20260507063612 55 318 2.0 2.0 0.00 0.00 0.00 76 1013.4
20260507063109 55 308 1.0 2.0 0.00 0.00 0.00 77 1013.5
20260507062606 55 327 1.0 3.0 0.00 0.00 0.00 76 1013.4
20260507062103 55 308 2.0 3.0 0.00 0.00 0.00 77 1013.5
20260507061601 55 312 0.0 1.0 0.00 0.00 0.00 77 1013.5
20260507061059 55 300 0.0 2.0 0.00 0.00 0.00 78 1013.7
20260507060557 55 271 0.0 2.0 0.00 0.00 0.00 77 1013.5
20260507060053 56 329 0.0 2.0 0.00 0.00 0.00 76 1013.6
20260507055548 56 312 1.0 2.0 0.00 0.00 0.00 77 1013.6
20260507055044 56 316 1.0 2.0 0.00 0.00 0.00 77 1013.6
20260507054540 56 283 0.0 3.0 0.00 0.00 0.00 78 1013.7
20260507054037 56 322 0.0 2.0 0.00 0.00 0.00 78 1013.3
20260507053535 56 87 0.0 1.0 0.00 0.00 0.00 79 1013.4
20260507053034 56 311 0.0 1.0 0.00 0.00 0.00 79 1013.4
20260507052531 56 328 1.0 2.0 0.00 0.00 0.00 79 1013.2
20260507052028 56 99 1.0 1.0 0.00 0.00 0.00 79 1013.1
20260507051526 56 297 0.0 0.0 0.00 0.00 0.00 80 1012.9
20260507051022 56 330 0.0 1.0 0.00 0.00 0.00 79 1013.2
20260507050518 56 325 0.0 2.0 0.00 0.00 0.00 79 1013.4
20260507050015 56 270 0.0 0.0 0.00 0.00 0.00 80 1013.2
20260507045512 56 267 1.0 2.0 0.00 0.00 0.00 79 1013.2
20260507045009 56 34 1.0 2.0 0.00 0.00 0.00 80 1013.3
20260507044506 56 291 0.0 3.0 0.00 0.00 0.00 80 1013.2
20260507044002 56 309 1.0 2.0 0.00 0.00 0.00 79 1013.2
20260507043458 56 322 0.0 4.0 0.00 0.00 0.00 80 1013.2
20260507042955 56 312 2.0 2.0 0.00 0.00 0.00 80 1012.4
20260507042452 56 349 0.0 1.0 0.00 0.00 0.00 79 1012.8
20260507041948 56 3 0.0 3.0 0.00 0.00 0.00 80 1012.8
20260507041445 56 335 0.0 3.0 0.00 0.00 0.00 80 1013.0
20260507040942 56 311 2.0 3.0 0.00 0.00 0.00 80 1013.2
20260507040437 56 325 1.0 2.0 0.00 0.00 0.00 80 1013.1
20260507035933 56 308 2.0 3.0 0.00 0.00 0.00 81 1013.2
20260507035430 56 319 0.0 2.0 0.00 0.00 0.00 81 1012.9
20260507034927 56 287 1.0 1.0 0.00 0.00 0.00 82 1012.8
20260507034424 57 305 0.0 3.0 0.00 0.00 0.00 82 1012.7
20260507033922 57 340 0.0 3.0 0.00 0.00 0.00 82 1013.0
20260507033419 57 340 1.0 3.0 0.00 0.00 0.00 81 1012.9
20260507032916 57 333 2.0 7.0 0.00 0.00 0.00 82 1012.8
20260507032413 57 341 2.0 6.0 0.00 0.00 0.00 83 1013.0
20260507031909 57 311 2.0 3.0 0.00 0.00 0.00 83 1013.2
20260507031406 58 346 0.0 1.0 0.00 0.00 0.00 83 1012.8
20260507030903 58 86 0.0 0.0 0.00 0.00 0.00 83 1012.7
20260507030400 58 95 0.0 1.0 0.00 0.00 0.00 82 1013.1
20260507025857 58 356 1.0 2.0 0.00 0.00 0.00 82 1013.0
20260507025354 58 90 0.0 0.0 0.00 0.00 0.00 82 1012.7
20260507024852 59 334 1.0 2.0 0.00 0.00 0.00 81 1012.8
20260507024349 59 99 1.0 1.0 0.00 0.00 0.00 81 1012.5
20260507023844 59 320 1.0 2.0 0.00 0.00 0.00 80 1012.7
20260507023342 60 304 1.0 2.0 0.00 0.00 0.00 80 1012.4
20260507022839 60 331 0.0 1.0 0.00 0.00 0.00 80 1012.3
20260507022335 60 326 1.0 2.0 0.00 0.00 0.00 79 1012.5
20260507021831 60 338 2.0 3.0 0.00 0.00 0.00 80 1012.4
20260507021327 60 349 0.0 1.0 0.00 0.00 0.00 81 1012.1
20260507020825 60 354 0.0 0.0 0.00 0.00 0.00 81 1012.5
20260507020321 60 289 0.0 1.0 0.00 0.00 0.00 81 1012.2
20260507015819 60 295 1.0 2.0 0.00 0.00 0.00 80 1012.0
20260507015316 61 306 0.0 0.0 0.00 0.00 0.00 81 1012.2
20260507014813 61 306 0.0 0.0 0.00 0.00 0.00 81 1012.2
20260507014310 61 306 0.0 1.0 0.00 0.00 0.00 80 1012.1
20260507013806 61 279 1.0 2.0 0.00 0.00 0.00 81 1012.5
20260507013303 61 275 0.0 0.0 0.00 0.00 0.00 80 1012.4
20260507012801 61 275 1.0 2.0 0.00 0.00 0.00 81 1011.8
20260507012256 61 268 0.0 1.0 0.00 0.00 0.00 82 1011.6
20260507011754 61 294 1.0 1.0 0.00 0.00 0.00 82 1012.0
20260507011250 0 0.0 0.0 0.00 0.00 0.00 1011.9
20260507010750 62 262 0.0 1.0 0.00 0.00 0.00 80 1011.7
20260507010246 62 262 0.0 1.0 0.00 0.00 0.00 80 1011.7
20260507005744 62 258 3.0 4.0 0.00 0.00 0.00 80 1012.0
20260507005240 62 299 1.0 1.0 0.00 0.00 0.00 85 1012.0
20260507004736 62 299 2.0 2.0 0.00 0.00 0.00 85 1012.2
20260507004235 62 285 0.0 0.0 0.00 0.00 0.00 85 1012.2
20260507003730 63 284 0.0 0.0 0.00 0.00 0.00 83 1011.9
20260507003226 63 284 0.0 0.0 0.00 0.00 0.00 83 1012.0
20260507002722 63 284 0.0 0.0 0.00 0.00 0.00 83 1012.0
20260507002218 64 284 0.0 0.0 0.00 0.00 0.00 82 1012.0
20260507001715 64 3 0.0 0.0 0.00 0.00 0.00 81 1011.8
20260507001212 64 98 0.0 1.0 0.00 0.00 0.00 81 1011.6
20260507000708 64 277 2.0 2.0 0.00 0.00 0.00 80 1011.7
20260507000205 64 283 5.0 6.0 0.00 0.00 0.00 81 1011.6
20260506235701 65 354 0.0 0.0 0.00 0.00 0.00 82 1011.3
20260506235157 65 354 0.0 0.0 0.00 0.00 0.00 82 1011.0
20260506234654 65 354 0.0 0.0 0.00 0.00 0.00 82 1011.3
20260506234151 65 276 2.0 3.0 0.00 0.00 0.00 80 1011.1
20260506233648 65 276 2.0 3.0 0.00 0.00 0.00 80 1010.9
20260506233145 65 263 1.0 1.0 0.00 0.00 0.00 80 1010.7
20260506232641 65 263 1.0 2.0 0.00 0.00 0.00 80 1010.6
20260506232137 65 273 3.0 4.0 0.00 0.00 0.00 80 1010.7
20260506231634 66 302 1.0 2.0 0.00 0.00 0.00 79 1010.5
20260506231132 66 284 4.0 4.0 0.00 0.00 0.00 80 1010.3
20260506230629 67 291 1.0 2.0 0.00 0.00 0.00 79 1010.2
20260506230126 67 344 1.0 2.0 0.00 0.00 0.00 80 1010.1
20260506225622 67 330 2.0 3.0 0.00 0.00 0.00 82 1010.2
20260506225119 68 328 0.0 1.0 0.00 0.00 0.00 82 1009.8
20260506224616 67 332 1.0 2.0 0.00 0.00 0.00 81 1010.0
20260506224112 68 318 2.0 2.0 0.00 0.00 0.00 82 1010.1
20260506223608 68 318 2.0 2.0 0.00 0.00 0.00 82 1010.2
20260506223105 68 315 2.0 2.0 0.00 0.00 0.00 81 1010.1
20260506222602 67 314 1.0 2.0 0.00 0.00 0.00 81 1010.0
20260506222058 68 326 2.0 3.0 0.00 0.00 0.00 81 1009.9
20260506221556 0 0.0 0.0 0.00 0.00 0.00 1009.8
20260506221054 0 0.0 0.0 0.00 0.00 0.00 1009.9
20260506220549 69 137 0.0 0.0 0.00 0.00 0.00 84 1009.7
20260506220045 69 137 0.0 0.0 0.00 0.00 0.00 84 1009.7
20260506215542 69 121 0.0 0.0 0.00 0.00 0.00 85 1009.2
20260506215038 69 123 0.0 0.0 0.00 0.00 0.00 86 1009.5
20260506214535 69 124 0.0 0.0 0.00 0.00 0.00 86 1009.2
20260506214032 69 124 0.0 0.0 0.00 0.00 0.00 86 1009.4
20260506213530 69 124 0.0 0.0 0.00 0.00 0.00 87 1009.5
20260506213027 69 123 0.0 0.0 0.00 0.00 0.00 87 1009.4
20260506212524 69 123 0.0 0.0 0.00 0.00 0.00 88 1009.4
20260506212019 69 123 0.0 0.0 0.00 0.00 0.00 86 1009.6
20260506211515 69 133 0.0 0.0 0.00 0.00 0.00 85 1009.2
20260506211012 69 134 0.0 1.0 0.00 0.00 0.00 86 1009.1
20260506210508 70 110 0.0 1.0 0.00 0.00 0.00 86 1009.0
20260506210005 69 110 0.0 0.0 0.00 0.00 0.00 87 1008.9
20260506205502 69 59 0.0 0.0 0.00 0.00 0.00 87 1008.7
20260506204957 68 30 0.0 0.0 0.00 0.00 0.00 90 1009.0
20260506204456 67 30 0.0 0.0 0.00 0.00 0.00 91 1008.9
20260506203952 67 102 0.0 0.0 0.00 0.00 0.00 91 1008.8
20260506203450 67 105 0.0 0.0 0.00 0.00 0.00 92 1008.6
20260506202947 66 105 0.0 0.0 0.00 0.00 0.00 91 1008.9
20260506202444 66 105 0.0 0.0 0.00 0.00 0.00 90 1008.8
20260506201940 66 105 0.0 1.0 0.00 0.00 0.00 91 1008.8
20260506201438 66 156 0.0 0.0 0.00 0.00 0.00 91 1009.0
20260506200934 67 158 0.0 0.0 0.00 0.00 0.00 91 1008.8
20260506200431 67 158 0.0 0.0 0.00 0.00 0.00 91 1008.8
20260506195927 67 158 0.0 0.0 0.00 0.00 0.00 92 1009.0
20260506195424 68 158 0.0 0.0 0.00 0.00 0.00 89 1008.7
20260506194921 68 158 0.0 0.0 0.00 0.00 0.00 89 1008.9
20260506194418 69 158 0.0 0.0 0.00 0.00 0.00 85 1008.7
20260506193915 69 158 0.0 0.0 0.00 0.00 0.00 84 1008.9
20260506193412 69 157 0.0 0.0 0.00 0.00 0.00 82 1008.6
20260506192908 70 160 0.0 0.0 0.00 0.00 0.00 83 1008.7